#timestamp,LO_Frequency,Hit,StdDev 
1678089615.7,286046980.2,Y
1678089635.5,286046992.5,P
1678089655.3,286046996.2,N
1678089675.2,286046994.3,N
1678089695.0,286046989.9,Y
1678089695.9,286046989.9,P
1678089715.7,286046995.0,P
1678089735.6,286047002.4,N
1678089755.4,286047011.9,N
1678089775.3,286047012.4,N
1678089795.1,286047012.3,N
1678089796.0,286047012.3,N
1678089815.8,286047003.0,N
1678089835.7,286047002.2,N
1678089855.5,286046999.4,N
1678089875.3,286046995.2,N
1678089895.2,286046994.9,N
1678089915.0,286047004.0,N
1678089915.9,286047004.0,N
1678089935.8,286047004.2,N
1678089955.6,286047001.3,N
1678089975.4,286047000.8,N
1678089995.3,286046999.8,N
1678090015.1,286047000.8,N
1678090035.8,286047002.2,N
1678090055.7,286047001.8,N
1678090075.5,286046996.1,N
1678090095.4,286046993.8,N
1678090115.2,286046993.6,N
1678090135.0,286046993.5,N
1678090135.9,286046993.5,N
1678090155.8,286046991.7,N
1678090175.6,286046995.7,N
1678090195.4,286046998.0,N
1678090215.3,286046997.4,N
1678090235.1,286047003.2,N
1678090255.9,286047000.9,N
1678090275.7,286047000.3,N
1678090295.5,286046995.5,N
1678090315.4,286046995.7,N
1678090335.2,286046994.0,N
1678090355.0,286046992.2,N
1678090355.9,286046992.2,N
1678090375.8,286046991.6,N
1678090395.6,286046985.4,Y
1678090415.5,286046985.4,P
1678090435.3,286046984.4,N
1678090455.1,286046979.2,P
1678090475.9,286046984.2,N
1678090495.7,286046982.2,N
1678090515.5,286046979.2,Y
1678090535.4,286046994.7,P
1678090555.2,286046998.4,N
1678090575.1,286046994.0,N
1678090576.0,286046994.0,N
1678090595.8,286046992.9,N
1678090615.6,286046991.2,N
1678090635.5,286046996.2,N
1678090655.3,286046998.5,N
1678090675.1,286047001.7,N
1678090695.9,286047004.4,N
1678090715.7,286047006.9,N
1678090735.6,286047005.2,N
1678090755.4,286047007.1,N
1678090775.2,286047009.5,N
1678090795.1,286047014.8,N
1678090796.0,286047014.8,N
1678090815.8,286047009.7,N
1678090835.7,286047000.2,N
1678090855.5,286046995.9,N
1678090875.3,286046990.9,N
1678090895.2,286046991.3,N
1678090915.9,286046988.9,N
1678090935.7,286046988.5,N
1678090955.6,286046992.7,N
1678090975.4,286046990.7,N
1678090995.2,286046989.2,N
1678091015.1,286046996.4,N
1678091016.0,286046996.4,N
1678091035.8,286046995.3,N
1678091055.7,286046990.6,N
1678091075.5,286046988.7,N
1678091095.3,286046987.4,N
1678091115.2,286046992.9,N
1678091135.0,286046993.0,N
1678091135.9,286046993.0,N
1678091155.8,286046994.2,N
1678091175.6,286046993.0,N
1678091195.4,286046991.1,N
1678091215.3,286046988.2,N
1678091235.1,286046984.8,N
1678091236.0,286046984.8,N
1678091255.8,286046981.6,N
1678091275.7,286046976.7,N
1678091295.5,286046978.5,N
1678091315.4,286046984.3,N
1678091335.2,286046983.9,N
1678091355.0,286046986.3,N
1678091355.9,286046986.3,N
1678091375.8,286046990.9,N
1678091395.6,286046999.6,N
1678091415.4,286046997.7,N
1678091435.3,286047000.3,N
1678091455.1,286046995.5,N
1678091475.9,286046992.1,N
1678091495.7,286046990.3,N
1678091515.5,286046986.8,N
1678091535.4,286046983.3,N
1678091555.2,286046982.0,Y
1678091575.1,286046990.3,P
1678091576.0,286046990.3,P
1678091595.8,286046989.0,P
1678091615.6,286046991.3,Y
1678091635.5,286046998.5,P
1678091655.3,286047001.2,N
1678091675.1,286047002.4,N
1678091695.9,286046999.3,N
1678091715.7,286047001.2,N
1678091735.6,286047010.7,N
1678091755.4,286047009.7,N
1678091775.2,286047015.3,N
1678091795.1,286047015.7,N
1678091796.0,286047015.7,N
1678091815.8,286047015.7,N
1678091835.6,286047019.2,N
1678091855.5,286047019.5,N
1678091875.3,286047012.7,N
1678091895.2,286047015.9,N
1678091915.9,286047017.9,N
1678091935.7,286047024.8,N
1678091955.6,286047020.4,N
1678091975.4,286047018.4,N
1678091995.2,286047013.5,N
1678092015.1,286047013.9,N
1678092016.0,286047013.9,N
1678092035.8,286047010.2,N
1678092055.7,286047007.0,N
1678092075.5,286047011.6,N
1678092095.3,286047020.3,N
1678092115.2,286047017.7,N
1678092135.0,286047031.1,Y
1678092135.9,286047031.1,P
1678092155.8,286047013.2,N
1678092175.6,286047008.5,N
1678092195.4,286047004.0,N
1678092215.3,286046999.7,N
1678092235.1,286047001.1,N
1678092255.8,286047001.2,N
1678092275.7,286047001.5,N
1678092295.5,286047000.6,N
1678092315.4,286046994.3,N
1678092335.2,286046989.3,N
1678092355.0,286046983.4,N
1678092355.9,286046983.4,N
1678092375.8,286046980.1,N
1678092395.6,286046980.1,N
1678092415.4,286046984.0,N
1678092435.3,286046986.2,N
1678092455.1,286046982.6,N
1678092475.9,286046986.3,N
1678092495.7,286046994.8,N
1678092515.5,286046995.1,N
1678092535.4,286046991.0,N
1678092555.2,286046985.3,N
1678092575.0,286046985.7,N
1678092575.9,286046985.7,N
1678092595.8,286046982.3,N
1678092615.6,286046991.0,N
1678092635.5,286046985.8,N
1678092655.3,286046991.8,N
1678092675.1,286046998.7,N
1678092695.9,286046992.9,N
1678092715.7,286046986.1,N
1678092735.5,286046985.1,N
1678092755.4,286046980.9,N
1678092775.2,286046981.0,N
1678092795.1,286046984.3,N
1678092796.0,286046984.3,N
1678092815.8,286046985.6,N
1678092835.6,286046990.5,N
1678092855.5,286046989.9,N
1678092875.3,286046988.0,N
1678092895.1,286046986.2,N
1678092915.9,286046981.5,Y
1678092935.7,286046997.5,P
1678092955.6,286046999.1,N
1678092975.4,286047002.3,N
1678092995.2,286047000.7,N
1678093015.1,286046993.9,N
1678093016.0,286046993.9,N
1678093035.8,286046994.1,N
1678093055.6,286046988.5,N
1678093075.5,286046987.5,N
1678093095.3,286046994.7,N
1678093115.2,286046989.7,N
1678093135.9,286046984.0,Y
1678093155.7,286046990.0,P
1678093175.6,286046987.2,P
1678093195.4,286046982.8,P
